Location: Unspecified
(52.4292°N, 19.3359°E)
Time: 22:57:07
(UTC+02:00)

SR - Pass Details

Date: 27 May 2024
Orbit: 580 x 858 km, 66.7° (Epoch: 12 June)

Event Time Altitude Azimuth Distance (km) Brightness Sun altitude
Rises 18:11:44 0° 226° (SW) 3,187 ? 21.1°
Reaches altitude 10° 18:14:12 10° 230° (SW) 2,220 ? 20.7°
Maximum altitude 18:19:13 66° 313° (NW) 749 ? 19.9°
Drops below altitude 10° 18:23:51 10° 36° (NE) 2,055 ? 19.3°
Sets 18:26:05 0° 39° (NE) 2,931 ? 18.9°
